This is the latest recevied weather packets stored in our database for station/object N5ATR. If no packets are shown the sender has not sent any weather packets the latest 10 day(s).
| Time | Temp. | Humidity | Pressure | Rain* | Wind** | Luminosity | Snow |
|---|---|---|---|---|---|---|---|
| 1777932883 | 20° C | 23% | 1011.3 hPa | 0 mm | - | 371 W/m² | - |
| 1777932580 | 20.56° C | 23% | 1011.1 hPa | 0 mm | - | 385 W/m² | - |
| 1777932276 | 20° C | 24% | 1011.2 hPa | 0 mm | - | 430 W/m² | - |
| 1777931974 | 20.56° C | 24% | 1011.4 hPa | 0 mm | - | 425 W/m² | - |
| 1777931670 | 20.56° C | 22% | 1011.6 hPa | 0 mm | - | 496 W/m² | - |
| 1777931367 | 20.56° C | 24% | 1011.8 hPa | 0 mm | - | 559 W/m² | - |
| 1777931064 | 21.11° C | 23% | 1011.9 hPa | 0 mm | - | 599 W/m² | - |
| 1777930760 | 20.56° C | 24% | 1012.1 hPa | 0 mm | - | 647 W/m² | - |
| 1777930456 | 20.56° C | 24% | 1011.7 hPa | 0 mm | - | 647 W/m² | - |
| 1777930154 | 20.56° C | 24% | 1011.9 hPa | 0 mm | - | 536 W/m² | - |
| 1777929849 | 20° C | 24% | 1012.2 hPa | 0 mm | - | 415 W/m² | - |
| 1777929548 | 20° C | 24% | 1012.2 hPa | 0 mm | - | 415 W/m² | - |
| 1777929243 | 20° C | 21% | 1012.3 hPa | 0 mm | - | 506 W/m² | - |
| 1777928941 | 20° C | 22% | 1012.4 hPa | 0 mm | - | 596 W/m² | - |
| 1777928637 | 20° C | 23% | 1012.7 hPa | 0 mm | - | 460 W/m² | - |
| 1777928335 | 21.11° C | 24% | 1012.4 hPa | 0 mm | - | 716 W/m² | - |
| 1777928033 | 20° C | 25% | 1012.9 hPa | 0 mm | - | 717 W/m² | - |
| 1777927730 | 20° C | 25% | 1013 hPa | 0 mm | - | 706 W/m² | - |
| 1777927429 | 20° C | 25% | 1013.2 hPa | 0 mm | - | 706 W/m² | - |
| 1777927128 | 19.44° C | 25% | 1013 hPa | 0 mm | - | 677 W/m² | - |
| 1777926824 | 19.44° C | 25% | 1013.2 hPa | 0 mm | - | 718 W/m² | - |
| 1777926520 | 19.44° C | 26% | 1013.4 hPa | 0 mm | - | 754 W/m² | - |
| 1777926217 | 20° C | 25% | 1013.5 hPa | 0 mm | - | 682 W/m² | - |
| 1777925914 | 18.89° C | 25% | 1013.3 hPa | 0 mm | - | 728 W/m² | - |
| 1777925611 | 18.89° C | 26% | 1013.5 hPa | 0 mm | - | 645 W/m² | - |
* Rain latest hour (hover to see other rain measurements)
** Current wind speed in m/s (hover to see current wind gust speed)